User: anonymous   Login
Location: Newark
(45.9456°N, 15.4064°E)
Time: 19:59:15
(UTC+00:00)
Language:

deb Explorer IX - Orbit

View from above orbital plane
View from above orbital plane
View from above satellite
View from above satellite

Ground track
Ground track

The orbit data is extracted from the following two-line orbital elements,

1    85U 61004C   20025.38123386 +.00002934 +00000-0 +65893-3 0  9999
2    85 038.7709 035.6907 0383949 259.8111 095.9129 14.20283316910603
Epoch (UTC): 25 January 2020 09:08:58
Eccentricity: 0.0383949
inclination: 38.7709°
perigee height: 548 km
apogee height: 1101 km
right ascension of ascending node: 35.6907°
argument of perigee: 259.8111°
revolutions per day: 14.20283316
mean anomaly at epoch: 95.9129°
orbit number at epoch: 91060

The dashed part of the orbit path shows where the satellite is in the earth's shadow,  

DLR